Location: Carri�res
(48.9069°N, 2.1792°E)
Time: 12:47:33
(UTC+00:00)

H-2A R/B - Pass Details

Date: 17 January 2021
Orbit: 734 x 836 km, 98.2° (Epoch: 25 February)

Event Time Altitude Azimuth Distance (km) Brightness Sun altitude
Rises 18:04:15 0° 151° (SSE) 3,163 5.0 -15.8°
Reaches altitude 10° 18:06:32 10° 147° (SSE) 2,252 4.2 -16.2°
Maximum altitude 18:11:21 56° 70° (ENE) 900 2.0 -16.9°
Drops below altitude 10° 18:16:20 10° 353° (N) 2,320 4.4 -17.7°
Sets 18:18:42 0° 350° (N) 3,267 5.3 -18.1°
